QPF
0.06 0.05 0.06 0.04 0.04 0.04 0.04 0.03 0.04 0.04 0.04 0.04 0.03 0.04 0.03 0.04 0.04 0.04 0.06 0.07 0.09 0.08 0.07 0.07 0.05 0.05 0.06 0.07 0.07 0.06 0.04 0.04 0.04 0.05 0.03 0.02 0.03 0.03 0.04 0.05 0.05 0.06 0.08
0.05 0.04 0.04 0.03 0.03 0.04 0.04 0.06 0.06 0.06 0.05 0.04 0.04 0.05 0.04 0.03 0.03 0.05 0.07 0.07 0.07 0.05 0.04 0.05 0.03 0.04 0.05 0.08 0.06 0.04 0.02 0.03 0.03 0.03 0.04 0.03 0.03 0.03 0.03 0.04 0.04 0.07 0.09
0.05 0.03 0.02 0.02 0.02 0.03 0.02 0.03 0.07 0.09 0.08 0.06 0.06 0.05 0.04 0.04 0.06 0.09 0.09 0.06 0.05 0.03 0.03 0.03 0.03 0.04 0.06 0.08 0.05 0.03 0.03 0.03 0.03 0.04 0.04 0.01 0.01 0.02 0.03 0.04 0.04 0.06 0.07
0.04 0.02 0.01 0.04 0.04 0.02 0.01 0.02 0.04 0.05 0.06 0.06 0.05 0.05 0.06 0.07 0.08 0.08 0.06 0.05 0.05 0.03 0.02 0.03 0.03 0.03 0.06 0.11 0.06 0.04 0.04 0.03 0.03 0.05 0.03 0.01 0.01 0.02 0.04 0.05 0.03 0.04 0.04
0.04 0.03 0.04 0.06 0.04 0.02 0.01 0.01 0.03 0.03 0.03 0.02 0.03 0.04 0.04 0.04 0.03 0.03 0.04 0.05 0.05 0.03 0.02 0.03 0.03 0.04 0.09 0.15 0.08 0.04 0.03 0.03 0.03 0.04 0.03 0.02 0.01 0.02 0.03 0.04 0.04 0.04 0.03
0.03 0.04 0.06 0.06 0.04 0.03 0.02 0.02 0.03 0.03 0.02 0.01 0.02 0.02 0.01 0.01 0.01 0.02 0.03 0.05 0.04 0.02 0.02 0.04 0.04 0.04 0.10 0.12 0.07 0.03 0.03 0.03 0.03 0.02 0.02 0.02 0.01 0.01 0.02 0.03 0.04 0.03 0.02
0.03 0.05 0.06 0.05 0.04 0.04 0.04 0.03 0.03 0.02 0.02 0.01 0.01 0.01 0.01 0.01 0.01 0.01 0.02 0.04 0.04 0.03 0.03 0.04 0.03 0.06 0.09 0.07 0.03 0.02 0.02 0.02 0.02 0.01 0.02 0.02 0.01 0.01 0.02 0.02 0.03 0.03 0.02
0.03 0.03 0.05 0.06 0.04 0.03 0.03 0.03 0.02 0.01 0.01 0.01 0.01 0.01 0.01 0.01 0.01 0.03 0.03 0.04 0.05 0.04 0.04 0.05 0.05 0.08 0.08 0.04 0.02 0.01 0.01 0.02 0.02 0.02 0.02 0.02 0.02 0.02 0.04 0.04 0.04 0.04 0.03
0.05 0.04 0.06 0.07 0.05 0.03 0.03 0.03 0.02 0.01 0.01 0.01 0.01 0.01 0.01 0.01 0.02 0.03 0.03 0.04 0.04 0.03 0.04 0.06 0.08 0.08 0.05 0.02 0.02 0.02 0.03 0.03 0.03 0.03 0.03 0.03 0.03 0.04 0.05 0.04 0.04 0.04 0.04
0.07 0.05 0.05 0.05 0.04 0.03 0.02 0.03 0.03 0.02 0.02 0.02 0.01 0.01 0.01 0.02 0.02 0.03 0.02 0.03 0.04 0.07 0.07 0.07 0.07 0.05 0.03 0.02 0.02 0.03 0.04 0.05 0.04 0.04 0.05 0.05 0.04 0.04 0.05 0.04 0.03 0.03 0.02
0.08 0.07 0.05 0.04 0.04 0.03 0.02 0.03 0.03 0.03 0.02 0.02 0.02 0.01 0.01 0.01 0.01 0.01 0.02 0.04 0.06 0.06 0.05 0.05 0.05 0.05 0.04 0.02 0.03 0.03 0.04 0.06 0.07 0.07 0.08 0.08 0.06 0.05 0.04 0.03 0.03 0.03 0.03
0.06 0.05 0.05 0.03 0.04 0.03 0.02 0.03 0.03 0.03 0.03 0.02 0.01 0.01 0.00 0.01 0.01 0.01 0.01 0.02 0.03 0.05 0.05 0.04 0.05 0.05 0.04 0.02 0.03 0.03 0.03 0.05 0.07 0.08 0.09 0.08 0.07 0.06 0.04 0.03 0.02 0.02 0.03
0.03 0.04 0.07 0.08 0.04 0.02 0.02 0.02 0.02 0.03 0.02 0.01 0.01 0.01 0.01 0.01 0.01 0.01 0.02 0.03 0.03 0.05 0.06 0.05 0.04 0.03 0.03 0.03 0.03 0.03 0.05 0.06 0.06 0.06 0.06 0.03 0.03 0.04 0.04 0.04 0.03 0.03 0.02
0.04 0.05 0.06 0.06 0.04 0.03 0.02 0.02 0.02 0.03 0.02 0.02 0.02 0.01 0.01 0.02 0.01 0.01 0.01 0.02 0.03 0.03 0.05 0.05 0.03 0.04 0.06 0.04 0.04 0.05 0.05 0.08 0.07 0.07 0.07 0.03 0.02 0.02 0.04 0.05 0.05 0.04 0.03
0.05 0.05 0.04 0.02 0.03 0.05 0.03 0.03 0.02 0.02 0.02 0.02 0.02 0.01 0.01 0.01 0.01 0.01 0.02 0.02 0.03 0.04 0.07 0.06 0.03 0.03 0.05 0.04 0.04 0.05 0.08 0.06 0.08 0.10 0.04 0.02 0.02 0.02 0.03 0.05 0.05 0.04 0.04
0.04 0.04 0.03 0.03 0.03 0.04 0.03 0.04 0.03 0.02 0.02 0.03 0.03 0.04 0.01 0.01 0.02 0.04 0.05 0.02 0.02 0.03 0.04 0.03 0.04 0.04 0.04 0.04 0.04 0.05 0.08 0.07 0.07 0.09 0.05 0.04 0.04 0.02 0.03 0.05 0.06 0.05 0.05
0.03 0.05 0.03 0.03 0.03 0.03 0.03 0.03 0.03 0.03 0.02 0.03 0.03 0.05 0.03 0.02 0.02 0.02 0.02 0.01 0.01 0.02 0.02 0.02 0.02 0.03 0.04 0.04 0.05 0.06 0.07 0.08 0.08 0.07 0.05 0.05 0.04 0.06 0.04 0.04 0.05 0.05 0.05
0.04 0.06 0.05 0.02 0.03 0.03 0.01 0.01 0.01 0.02 0.02 0.02 0.02 0.03 0.04 0.03 0.03 0.02 0.01 0.01 0.01 0.01 0.02 0.01 0.01 0.03 0.04 0.06 0.07 0.10 0.07 0.07 0.06 0.05 0.05 0.04 0.04 0.04 0.03 0.03 0.03 0.03 0.02
0.02 0.05 0.07 0.04 0.03 0.03 0.02 0.02 0.02 0.02 0.02 0.01 0.01 0.02 0.03 0.03 0.03 0.02 0.01 0.01 0.01 0.01 0.02 0.01 0.01 0.01 0.03 0.04 0.04 0.05 0.05 0.07 0.07 0.06 0.05 0.04 0.03 0.03 0.03 0.02 0.02 0.02 0.02
0.01 0.04 0.05 0.04 0.04 0.03 0.03 0.03 0.04 0.04 0.02 0.02 0.02 0.03 0.03 0.02 0.02 0.02 0.01 0.01 0.01 0.02 0.02 0.02 0.02 0.03 0.03 0.03 0.02 0.04 0.07 0.07 0.06 0.05 0.05 0.04 0.04 0.04 0.03 0.02 0.02 0.01 0.01
0.03 0.03 0.03 0.02 0.02 0.02 0.02 0.03 0.04 0.05 0.04 0.03 0.03 0.03 0.04 0.03 0.02 0.02 0.01 0.02 0.02 0.02 0.02 0.03 0.04 0.03 0.03 0.03 0.04 0.04 0.03 0.04 0.04 0.04 0.05 0.05 0.03 0.03 0.02 0.02 0.02 0.01 0.02
0.04 0.04 0.03 0.02 0.01 0.01 0.02 0.03 0.03 0.04 0.05 0.05 0.04 0.04 0.04 0.03 0.04 0.04 0.03 0.04 0.04 0.03 0.02 0.04 0.06 0.04 0.04 0.03 0.03 0.03 0.03 0.03 0.03 0.02 0.02 0.02 0.03 0.04 0.05 0.05 0.04 0.05 0.05
0.07 0.08 0.05 0.04 0.03 0.02 0.02 0.02 0.02 0.03 0.04 0.05 0.04 0.04 0.03 0.03 0.03 0.03 0.03 0.04 0.05 0.04 0.04 0.04 0.06 0.05 0.04 0.04 0.05 0.05 0.04 0.04 0.02 0.02 0.02 0.02 0.03 0.05 0.07 0.07 0.06 0.05 0.05
0.15 0.15 0.09 0.05 0.03 0.03 0.02 0.02 0.02 0.02 0.02 0.03 0.04 0.04 0.04 0.04 0.04 0.04 0.04 0.05 0.05 0.04 0.04 0.04 0.05 0.06 0.05 0.04 0.05 0.03 0.04 0.05 0.04 0.03 0.02 0.03 0.04 0.07 0.10 0.10 0.08 0.06 0.05
0.17 0.15 0.07 0.05 0.04 0.03 0.03 0.02 0.02 0.01 0.01 0.02 0.03 0.04 0.05 0.06 0.07 0.07 0.07 0.07 0.06 0.05 0.06 0.05 0.05 0.07 0.08 0.07 0.05 0.04 0.04 0.04 0.03 0.03 0.03 0.03 0.03 0.05 0.09 0.10 0.12 0.08 0.06
0.07 0.05 0.06 0.08 0.06 0.04 0.02 0.03 0.02 0.02 0.02 0.02 0.02 0.04 0.08 0.10 0.09 0.10 0.09 0.08 0.07 0.07 0.08 0.08 0.07 0.08 0.10 0.08 0.06 0.07 0.06 0.06 0.03 0.02 0.02 0.03 0.03 0.04 0.06 0.07 0.08 0.09 0.09
MSLP
1010.92 1010.53 1010.37 1010.49 1010.85 1011.34 1011.84 1012.24 1012.47 1012.52 1012.44 1012.30 1012.19 1012.18 1012.29 1012.51 1012.77 1013.02 1013.20 1013.27 1013.25 1013.16 1013.05 1012.96 1012.93 1012.98 1013.08 1013.20 1013.33 1013.42 1013.47 1013.49 1013.49 1013.49 1013.52 1013.58 1013.66 1013.76 1013.87 1013.98 1014.08 1014.18 1014.29
1010.89 1010.59 1010.51 1010.69 1011.09 1011.59 1012.08 1012.46 1012.66 1012.69 1012.60 1012.47 1012.38 1012.40 1012.54 1012.79 1013.07 1013.32 1013.49 1013.55 1013.50 1013.39 1013.25 1013.15 1013.10 1013.13 1013.21 1013.32 1013.43 1013.51 1013.56 1013.58 1013.60 1013.63 1013.69 1013.77 1013.88 1014.00 1014.12 1014.22 1014.31 1014.40 1014.51
1010.83 1010.61 1010.61 1010.84 1011.27 1011.78 1012.26 1012.62 1012.80 1012.82 1012.73 1012.62 1012.56 1012.61 1012.78 1013.03 1013.30 1013.54 1013.68 1013.71 1013.63 1013.49 1013.35 1013.23 1013.18 1013.21 1013.29 1013.39 1013.50 1013.58 1013.64 1013.68 1013.73 1013.79 1013.88 1013.99 1014.12 1014.24 1014.36 1014.45 1014.52 1014.60 1014.68
1010.74 1010.60 1010.66 1010.94 1011.38 1011.89 1012.36 1012.71 1012.89 1012.92 1012.85 1012.76 1012.73 1012.80 1012.98 1013.21 1013.46 1013.65 1013.75 1013.73 1013.62 1013.47 1013.32 1013.21 1013.17 1013.21 1013.30 1013.42 1013.54 1013.64 1013.72 1013.79 1013.87 1013.96 1014.08 1014.22 1014.36 1014.48 1014.58 1014.65 1014.71 1014.76 1014.84
1010.65 1010.58 1010.69 1011.00 1011.46 1011.97 1012.43 1012.76 1012.95 1012.99 1012.95 1012.90 1012.90 1012.98 1013.15 1013.35 1013.55 1013.68 1013.71 1013.65 1013.51 1013.34 1013.19 1013.10 1013.09 1013.16 1013.27 1013.41 1013.55 1013.67 1013.78 1013.88 1013.99 1014.13 1014.28 1014.43 1014.58 1014.70 1014.78 1014.83 1014.87 1014.91 1014.97
1010.61 1010.59 1010.75 1011.08 1011.54 1012.04 1012.48 1012.81 1013.00 1013.07 1013.07 1013.05 1013.08 1013.16 1013.31 1013.47 1013.60 1013.66 1013.63 1013.51 1013.34 1013.16 1013.03 1012.96 1012.99 1013.08 1013.22 1013.38 1013.54 1013.68 1013.82 1013.95 1014.10 1014.26 1014.44 1014.62 1014.77 1014.88 1014.95 1014.98 1015.00 1015.02 1015.08
1010.67 1010.70 1010.88 1011.23 1011.68 1012.15 1012.58 1012.89 1013.09 1013.18 1013.21 1013.23 1013.28 1013.37 1013.48 1013.60 1013.66 1013.65 1013.55 1013.38 1013.18 1013.00 1012.88 1012.85 1012.90 1013.02 1013.19 1013.37 1013.54 1013.69 1013.84 1013.99 1014.16 1014.36 1014.56 1014.75 1014.91 1015.01 1015.07 1015.08 1015.08 1015.10 1015.17
1010.86 1010.93 1011.14 1011.48 1011.91 1012.35 1012.74 1013.03 1013.22 1013.32 1013.38 1013.43 1013.50 1013.59 1013.69 1013.76 1013.76 1013.68 1013.52 1013.31 1013.09 1012.91 1012.80 1012.79 1012.87 1013.01 1013.19 1013.37 1013.54 1013.70 1013.85 1014.01 1014.19 1014.40 1014.61 1014.81 1014.98 1015.08 1015.13 1015.14 1015.13 1015.14 1015.21
1011.20 1011.31 1011.54 1011.87 1012.26 1012.64 1012.97 1013.23 1013.39 1013.50 1013.57 1013.65 1013.74 1013.84 1013.92 1013.95 1013.91 1013.78 1013.58 1013.33 1013.09 1012.91 1012.81 1012.81 1012.90 1013.06 1013.23 1013.41 1013.56 1013.71 1013.84 1013.99 1014.17 1014.38 1014.60 1014.81 1014.97 1015.08 1015.13 1015.13 1015.12 1015.12 1015.19
1011.67 1011.82 1012.06 1012.36 1012.70 1013.02 1013.28 1013.47 1013.59 1013.68 1013.76 1013.85 1013.96 1014.07 1014.15 1014.16 1014.09 1013.93 1013.70 1013.43 1013.18 1012.99 1012.90 1012.90 1013.00 1013.14 1013.30 1013.46 1013.59 1013.70 1013.81 1013.94 1014.10 1014.30 1014.52 1014.72 1014.90 1015.01 1015.06 1015.07 1015.05 1015.06 1015.13
1012.19 1012.39 1012.64 1012.92 1013.20 1013.44 1013.61 1013.72 1013.79 1013.84 1013.91 1014.01 1014.13 1014.25 1014.34 1014.35 1014.27 1014.10 1013.85 1013.57 1013.32 1013.12 1013.03 1013.03 1013.10 1013.23 1013.37 1013.50 1013.59 1013.67 1013.74 1013.84 1013.98 1014.15 1014.35 1014.56 1014.74 1014.86 1014.93 1014.95 1014.94 1014.95 1015.01
1012.70 1012.95 1013.22 1013.48 1013.69 1013.84 1013.93 1013.95 1013.95 1013.96 1014.01 1014.10 1014.23 1014.36 1014.46 1014.48 1014.41 1014.24 1013.99 1013.71 1013.46 1013.26 1013.15 1013.14 1013.20 1013.29 1013.40 1013.49 1013.55 1013.59 1013.63 1013.68 1013.78 1013.93 1014.11 1014.31 1014.49 1014.63 1014.72 1014.76 1014.78 1014.80 1014.85
1013.12 1013.43 1013.72 1013.96 1014.12 1014.19 1014.19 1014.14 1014.07 1014.03 1014.05 1014.13 1014.25 1014.39 1014.50 1014.53 1014.48 1014.32 1014.09 1013.82 1013.57 1013.37 1013.25 1013.21 1013.24 1013.30 1013.37 1013.42 1013.45 1013.45 1013.44 1013.46 1013.52 1013.63 1013.78 1013.96 1014.14 1014.30 1014.42 1014.50 1014.55 1014.60 1014.65
1013.39 1013.76 1014.07 1014.30 1014.42 1014.44 1014.37 1014.26 1014.14 1014.06 1014.04 1014.10 1014.22 1014.35 1014.46 1014.51 1014.47 1014.34 1014.13 1013.88 1013.64 1013.43 1013.29 1013.22 1013.22 1013.24 1013.28 1013.29 1013.28 1013.24 1013.20 1013.17 1013.19 1013.25 1013.37 1013.52 1013.70 1013.88 1014.03 1014.16 1014.25 1014.33 1014.41
1013.52 1013.92 1014.25 1014.48 1014.58 1014.58 1014.48 1014.34 1014.19 1014.09 1014.05 1014.08 1014.17 1014.29 1014.39 1014.45 1014.42 1014.31 1014.13 1013.90 1013.66 1013.45 1013.30 1013.20 1013.15 1013.14 1013.13 1013.11 1013.07 1013.00 1012.92 1012.85 1012.81 1012.82 1012.89 1013.02 1013.18 1013.36 1013.55 1013.72 1013.86 1013.99 1014.10
1013.51 1013.93 1014.27 1014.50 1014.61 1014.61 1014.53 1014.40 1014.26 1014.15 1014.10 1014.11 1014.17 1014.26 1014.34 1014.38 1014.36 1014.27 1014.10 1013.90 1013.68 1013.47 1013.29 1013.16 1013.08 1013.02 1012.98 1012.93 1012.85 1012.75 1012.64 1012.53 1012.44 1012.39 1012.40 1012.48 1012.60 1012.77 1012.97 1013.18 1013.37 1013.55 1013.70
1013.42 1013.83 1014.16 1014.40 1014.54 1014.58 1014.55 1014.47 1014.37 1014.29 1014.24 1014.23 1014.25 1014.29 1014.34 1014.35 1014.32 1014.24 1014.09 1013.91 1013.70 1013.50 1013.31 1013.16 1013.04 1012.95 1012.87 1012.78 1012.68 1012.56 1012.42 1012.27 1012.13 1012.02 1011.96 1011.96 1012.03 1012.17 1012.35 1012.57 1012.80 1013.01 1013.20
1013.30 1013.67 1013.98 1014.22 1014.39 1014.50 1014.55 1014.56 1014.54 1014.50 1014.46 1014.44 1014.42 1014.41 1014.40 1014.37 1014.32 1014.23 1014.11 1013.95 1013.76 1013.57 1013.38 1013.21 1013.06 1012.94 1012.84 1012.73 1012.62 1012.48 1012.32 1012.14 1011.95 1011.77 1011.63 1011.55 1011.54 1011.60 1011.74 1011.93 1012.16 1012.39 1012.60
1013.19 1013.49 1013.76 1014.00 1014.21 1014.39 1014.54 1014.66 1014.73 1014.76 1014.75 1014.70 1014.64 1014.57 1014.49 1014.41 1014.33 1014.24 1014.13 1014.00 1013.84 1013.67 1013.49 1013.32 1013.16 1013.03 1012.90 1012.79 1012.67 1012.54 1012.37 1012.17 1011.94 1011.70 1011.48 1011.30 1011.18 1011.15 1011.20 1011.32 1011.51 1011.72 1011.92
1013.08 1013.30 1013.51 1013.74 1013.99 1014.25 1014.50 1014.73 1014.90 1014.99 1015.01 1014.96 1014.84 1014.71 1014.56 1014.43 1014.31 1014.21 1014.12 1014.02 1013.91 1013.78 1013.63 1013.47 1013.32 1013.18 1013.06 1012.96 1012.85 1012.73 1012.57 1012.37 1012.12 1011.83 1011.53 1011.25 1011.01 1010.85 1010.78 1010.80 1010.90 1011.05 1011.21
1012.96 1013.09 1013.24 1013.45 1013.72 1014.05 1014.39 1014.72 1014.98 1015.13 1015.18 1015.11 1014.95 1014.75 1014.54 1014.35 1014.20 1014.10 1014.03 1013.98 1013.92 1013.84 1013.73 1013.61 1013.49 1013.37 1013.27 1013.19 1013.12 1013.03 1012.90 1012.72 1012.46 1012.14 1011.78 1011.40 1011.05 1010.75 1010.54 1010.42 1010.39 1010.43 1010.51
1012.76 1012.82 1012.93 1013.11 1013.40 1013.76 1014.17 1014.57 1014.90 1015.11 1015.17 1015.08 1014.89 1014.63 1014.36 1014.13 1013.96 1013.85 1013.81 1013.81 1013.81 1013.80 1013.75 1013.68 1013.60 1013.52 1013.46 1013.42 1013.39 1013.35 1013.27 1013.12 1012.89 1012.57 1012.16 1011.71 1011.25 1010.82 1010.46 1010.18 1010.00 1009.90 1009.87
1012.43 1012.46 1012.53 1012.70 1012.98 1013.37 1013.81 1014.26 1014.63 1014.87 1014.93 1014.84 1014.61 1014.31 1014.00 1013.73 1013.54 1013.45 1013.45 1013.49 1013.56 1013.61 1013.64 1013.63 1013.60 1013.58 1013.56 1013.57 1013.60 1013.61 1013.59 1013.50 1013.31 1013.00 1012.59 1012.09 1011.55 1011.01 1010.51 1010.08 1009.75 1009.50 1009.33
1011.96 1011.98 1012.04 1012.19 1012.46 1012.85 1013.31 1013.77 1014.15 1014.40 1014.47 1014.36 1014.12 1013.79 1013.46 1013.17 1012.99 1012.91 1012.93 1013.03 1013.15 1013.27 1013.36 1013.41 1013.44 1013.47 1013.51 1013.57 1013.64 1013.72 1013.76 1013.73 1013.60 1013.33 1012.94 1012.44 1011.86 1011.24 1010.64 1010.09 1009.61 1009.23 1008.93
1011.34 1011.40 1011.46 1011.60 1011.86 1012.22 1012.67 1013.12 1013.49 1013.74 1013.81 1013.70 1013.46 1013.13 1012.79 1012.51 1012.33 1012.27 1012.32 1012.45 1012.62 1012.78 1012.92 1013.03 1013.11 1013.18 1013.26 1013.36 1013.49 1013.61 1013.71 1013.74 1013.67 1013.46 1013.12 1012.64 1012.07 1011.43 1010.77 1010.14 1009.56 1009.07 1008.65
1010.63 1010.72 1010.80 1010.94 1011.17 1011.51 1011.92 1012.34 1012.70 1012.94 1013.02 1012.92 1012.70 1012.39 1012.07 1011.81 1011.64 1011.59 1011.66 1011.80 1011.99 1012.19 1012.36 1012.50 1012.61 1012.71 1012.82 1012.95 1013.10 1013.27 1013.41 1013.49 1013.48 1013.34 1013.06 1012.64 1012.11 1011.50 1010.84 1010.19 1009.56 1008.99 1008.49
Thickness
5790 5794 5795 5795 5795 5794 5794 5793 5793 5792 5791 5789 5788 5787 5786 5785 5784 5782 5781 5780 5778 5776 5775 5773 5772 5771 5770 5769 5768 5767 5765 5764 5763 5762 5761 5759 5758 5757 5756 5755 5754 5753 5752
5795 5794 5795 5795 5795 5794 5794 5793 5792 5791 5790 5789 5787 5786 5785 5784 5783 5781 5780 5779 5777 5775 5774 5772 5771 5770 5769 5768 5767 5766 5765 5763 5762 5761 5760 5759 5758 5757 5756 5755 5753 5752 5751
5796 5795 5795 5795 5794 5794 5793 5792 5791 5791 5790 5788 5787 5785 5784 5783 5782 5781 5779 5778 5776 5775 5773 5772 5770 5769 5768 5767 5766 5765 5764 5762 5761 5760 5759 5758 5757 5756 5755 5754 5752 5751 5750
5797 5796 5796 5795 5794 5793 5793 5792 5791 5790 5789 5788 5786 5785 5784 5783 5782 5781 5779 5777 5776 5774 5773 5772 5770 5769 5768 5767 5765 5764 5763 5761 5760 5759 5758 5757 5756 5755 5754 5753 5752 5750 5749
5797 5796 5796 5795 5794 5793 5792 5791 5790 5789 5788 5787 5786 5784 5783 5782 5781 5780 5779 5777 5775 5774 5773 5772 5770 5768 5767 5766 5765 5763 5762 5761 5760 5759 5757 5756 5755 5754 5753 5752 5751 5750 5749
5797 5796 5796 5795 5794 5793 5792 5791 5790 5789 5787 5787 5785 5784 5783 5782 5781 5780 5778 5777 5776 5774 5773 5771 5770 5768 5767 5765 5764 5763 5762 5761 5760 5758 5757 5756 5755 5754 5753 5752 5751 5750 5748
5797 5796 5796 5795 5794 5793 5792 5790 5789 5788 5786 5786 5785 5784 5783 5782 5781 5779 5778 5777 5775 5774 5773 5771 5769 5768 5767 5766 5765 5763 5762 5761 5760 5758 5757 5756 5755 5754 5752 5751 5750 5749 5748
5797 5796 5795 5795 5794 5793 5791 5790 5789 5787 5786 5785 5784 5784 5783 5782 5780 5779 5778 5776 5775 5774 5772 5771 5769 5768 5767 5766 5765 5764 5763 5762 5760 5759 5757 5756 5755 5753 5752 5751 5750 5749 5748
5797 5796 5795 5795 5793 5792 5791 5790 5789 5787 5786 5785 5784 5783 5782 5781 5779 5778 5777 5776 5775 5773 5772 5771 5769 5769 5768 5767 5766 5765 5764 5762 5761 5759 5757 5756 5755 5754 5752 5751 5750 5749 5747
5796 5795 5795 5794 5793 5791 5790 5789 5788 5787 5786 5785 5784 5782 5781 5780 5779 5778 5777 5776 5775 5774 5773 5771 5770 5769 5768 5767 5766 5765 5764 5762 5761 5759 5758 5757 5756 5754 5753 5751 5750 5748 5747
5794 5794 5794 5793 5792 5791 5790 5789 5788 5787 5785 5784 5783 5782 5780 5779 5778 5778 5777 5776 5775 5774 5773 5772 5771 5770 5768 5767 5766 5765 5764 5762 5761 5760 5758 5758 5756 5755 5753 5752 5750 5748 5746
5792 5793 5794 5794 5793 5792 5791 5789 5788 5786 5785 5784 5783 5782 5780 5779 5778 5777 5776 5775 5775 5774 5773 5772 5771 5770 5769 5767 5766 5765 5763 5763 5761 5761 5759 5759 5757 5755 5754 5752 5750 5748 5746
5797 5796 5796 5795 5794 5792 5791 5790 5788 5787 5786 5784 5783 5782 5781 5779 5778 5777 5776 5775 5774 5773 5772 5771 5770 5769 5768 5767 5766 5765 5764 5763 5762 5761 5760 5760 5758 5756 5754 5752 5750 5748 5746
5798 5798 5798 5797 5795 5794 5793 5791 5789 5787 5786 5785 5784 5783 5781 5779 5777 5777 5775 5774 5774 5773 5771 5770 5769 5769 5767 5767 5766 5765 5765 5764 5762 5761 5761 5760 5758 5756 5754 5752 5750 5748 5746
5800 5799 5799 5798 5796 5795 5793 5791 5790 5789 5788 5786 5785 5783 5781 5779 5778 5777 5775 5774 5774 5773 5771 5770 5769 5768 5767 5766 5766 5766 5765 5765 5764 5762 5762 5760 5758 5755 5754 5752 5750 5748 5746
5801 5800 5800 5799 5797 5795 5793 5792 5791 5789 5788 5787 5785 5784 5782 5780 5778 5777 5775 5774 5773 5773 5771 5770 5769 5768 5767 5767 5767 5767 5766 5765 5765 5763 5762 5760 5758 5756 5754 5752 5750 5748 5746
5803 5802 5800 5799 5798 5796 5794 5793 5792 5790 5789 5787 5785 5784 5782 5780 5779 5777 5775 5774 5773 5773 5771 5770 5769 5768 5768 5768 5767 5767 5767 5767 5765 5764 5762 5761 5758 5756 5755 5753 5751 5749 5747
5806 5803 5802 5801 5798 5796 5794 5793 5791 5790 5788 5787 5785 5784 5782 5780 5779 5777 5775 5774 5773 5772 5771 5769 5768 5766 5766 5766 5766 5767 5767 5767 5766 5764 5763 5761 5759 5757 5755 5753 5751 5749 5748
5807 5804 5801 5800 5797 5796 5794 5792 5791 5789 5788 5786 5785 5783 5782 5780 5779 5777 5775 5774 5773 5772 5770 5769 5768 5766 5763 5763 5764 5765 5766 5765 5765 5764 5763 5761 5759 5758 5756 5754 5752 5750 5748
5808 5804 5801 5799 5797 5795 5793 5791 5789 5787 5786 5785 5784 5783 5782 5780 5779 5777 5775 5774 5772 5770 5769 5768 5766 5765 5763 5762 5763 5763 5763 5763 5763 5762 5761 5760 5759 5757 5756 5754 5751 5749 5748
5806 5802 5799 5796 5795 5793 5790 5787 5784 5782 5783 5783 5783 5782 5781 5780 5778 5777 5775 5773 5771 5769 5767 5766 5765 5762 5761 5761 5757 5755 5758 5761 5760 5760 5759 5758 5757 5756 5755 5753 5751 5749 5747
5803 5800 5798 5794 5793 5792 5790 5788 5786 5784 5782 5782 5782 5781 5780 5778 5777 5776 5774 5772 5770 5768 5766 5765 5763 5759 5758 5758 5752 5747 5743 5747 5753 5758 5756 5755 5755 5754 5753 5751 5749 5747 5745
5801 5799 5797 5794 5792 5791 5790 5787 5785 5782 5780 5778 5778 5777 5778 5777 5776 5775 5773 5771 5769 5767 5764 5763 5762 5758 5754 5754 5753 5746 5738 5734 5741 5749 5751 5752 5751 5749 5749 5748 5746 5745 5743
5800 5800 5797 5794 5792 5790 5789 5785 5781 5776 5773 5774 5775 5775 5775 5775 5774 5773 5772 5769 5768 5766 5764 5762 5761 5758 5754 5749 5749 5748 5745 5742 5736 5736 5742 5746 5746 5745 5744 5744 5742 5742 5741
5802 5799 5796 5793 5790 5789 5787 5784 5780 5777 5775 5775 5774 5773 5772 5772 5772 5771 5769 5767 5765 5763 5762 5760 5758 5756 5753 5749 5746 5743 5741 5740 5738 5732 5730 5735 5738 5741 5741 5740 5739 5738 5737
5800 5798 5795 5791 5788 5788 5786 5783 5780 5776 5774 5772 5770 5769 5768 5768 5768 5767 5766 5764 5763 5761 5759 5757 5756 5754 5751 5748 5745 5742 5738 5735 5733 5729 5726 5727 5728 5733 5736 5736 5735 5735 5734